Regional Weather Roundup
Issued by NWS

Home | Current Version | Previous Version | Graphics & Text | Print | Product List | Glossary On
Versions: 1 2 3 4 5 6 7 8 9 10 11 12 13 14 15 16 17 18 19 20 21 22 23 24 25 26 27 28 29 30 31 32 33 34 35 36 37 38 39 40 41 42 43 44 45 46 47 48 49 50
000
ASUS43 KLSX 272207
RWRMO

WEATHER SUMMARY FOR MISSOURI
NATIONAL WEATHER SERVICE SPRINGFIELD MO
500 PM CDT FRI MAY 27 2016

NOTE: "FAIR" INDICATES FEW OR NO CLOUDS BELOW 12,000 FEET WITH NO
       SIGNIFICANT WEATHER AND/OR OBSTRUCTIONS TO VISIBILITY.
       CURRENT SKY AND/OR WEATHER CONDITIONS ARE NOT AVAILABLE FOR
       CHILLICOTHE AND FARMINGTON.

MOZ001>031-035>038-043-044-053-054-272300-
...NORTHERN AND WESTERN MISSOURI...

CITY           SKY/WX    TMP DP  RH WIND       PRES   REMARKS
KANSAS CTY INT CLOUDY    70  68  93 E5        29.72F
KANSAS C DTWN  CLOUDY    73  67  81 N3        29.71F
LEE`S SUMMIT   CLOUDY    77  67  71 S12       29.72F
ST JOSEPH      CLOUDY    75  63  66 SE9       29.71F
CHILLICOTHE      N/A     81  68  64 S6        29.72F
KIRKSVILLE     SUNNY     82  66  58 W5        29.73F

$$
MOZ066>068-077>081-088>096-101>105-272300-
...SOUTHWEST MISSOURI...

CITY           SKY/WX    TMP DP  RH WIND       PRES   REMARKS
SPRINGFIELD    LGT RAIN  72  65  78 SE8       29.75F
JOPLIN         CLOUDY    73  67  81 S5        29.73F
BRANSON        CLOUDY    75  68  78 SE9       29.79F

$$
MOZ032>034-039>042-045>050-055>058-069>072-272300-
...CENTRAL MISSOURI...

CITY           SKY/WX    TMP DP  RH WIND       PRES   REMARKS
COLUMBIA       MOSUNNY   80  68  66 S7        29.74F
JEFFERSON CITY TSTM      78  70  76 SE10      29.72F
ROLLA          TSTM      70  64  81 SE7       29.77S
SEDALIA        CLOUDY    79  67  66 S15       29.75S
WHITEMAN AFB   CLOUDY    76  69  79 SW9       29.72F
WARRENSBURG    MOSUNNY   77  68  73 S7        29.71F

$$
MOZ051-052-059>065-272300-
...EAST CENTRAL MISSOURI...

CITY           SKY/WX    TMP DP  RH WIND       PRES   REMARKS
ST LOUIS INTL  CLOUDY    78  68  71 S15G23    29.81F
SPIRIT OF STL  CLOUDY    76  70  82 SE6       29.78F
ST CHARLES     CLOUDY    77  70  79 S13       29.79S

$$
MOZ072>076-082>087-097>100-106>115-272300-
...SOUTH CENTRAL AND SOUTHEAST MISSOURI...

CITY           SKY/WX    TMP DP  RH WIND       PRES   REMARKS
CAPE GIRARDEAU PTSUNNY   73  68  84 S6        29.87S
FARMINGTON     LGT RAIN  71  69  93 S14       29.85F
POPLAR BLUFF   CLOUDY    73  68  84 S8        29.86S
WEST PLAINS    CLOUDY    70  65  84 SE13G18   29.83F

$$


USA.gov is the U.S. government's official web portal to all federal, state and local government web resources and services.